Location: Buchdorf
(48.7842°N, 10.8275°E)
Time: 18:07:17
(UTC+00:00)

Cosmos 1656 - Pass Details

Date: 09 April 2020
Orbit: 798 x 849 km, 71.1° (Epoch: 23 May)

Event Time Altitude Azimuth Distance (km) Brightness Sun altitude
Rises 19:40:38 0° 334° (NNW) 3,423 7.9 -16.0°
Reaches altitude 10° 19:43:11 10° 339° (NNW) 2,481 7.0 -16.4°
Maximum altitude 19:48:46 54° 56° (NE) 1,023 4.0 -17.1°
Enters shadow 19:51:25 29° 119° (ESE) 1,483 4.4 -17.5°
